{"data":{"norad_id":64478,"epoch":"2026-05-25T04:37:02.368128Z","epoch_age_seconds":52213,"freshness":"FRESH","line1":"1 64478U 25133G   26145.19238852  .00015372  00000+0  52985-3 0  9998","line2":"2 64478  53.1608 121.2831 0001474  92.4883 267.6287 15.30211910 52909","mean_motion":15.3021191,"eccentricity":0.0001474,"inclination_deg":53.1608,"raan_deg":121.2831,"arg_perigee_deg":92.4883,"mean_anomaly_deg":267.6287,"bstar":0.00052985,"rev_number":5290,"period_min":94.104613262355,"perigee_km":474.16932968341,"apogee_km":476.18968739012,"semimajor_km":6853.3165085368,"source":"CELESTRAK","updated_at":"2026-05-25T13:38:20.457456Z"}}